EW7512 Weather Reports


time (UTC)temp
F
wind
direction
speed
knots
gust
knots
rain 1hr
in
rain 24hr
in
rain mn
in
humidity
%
barometer
mb
20260507213523 62 161 0.9 2.6 0.00 0.00 0.00 48 1019.4
20260507213028 62 140 0.9 2.6 0.00 0.00 0.00 48 1019.4
20260507212521 62 114 0.9 2.6 0.00 0.00 0.00 47 1019.4
20260507212021 62 115 0.9 2.6 0.00 0.00 0.00 46 1019.5
20260507211520 63 55 0.0 1.7 0.00 0.00 0.00 45 1019.5
20260507211022 63 56 0.0 2.6 0.00 0.00 0.00 44 1019.4
20260507210522 63 69 0.0 2.6 0.00 0.00 0.00 44 1019.3
20260507210017 63 69 0.9 3.5 0.00 0.00 0.00 44 1019.3
20260507205517 63 86 0.0 3.5 0.00 0.00 0.00 44 1019.3
20260507205018 63 90 0.0 3.5 0.00 0.00 0.00 43 1019.3
20260507204517 63 88 0.0 1.7 0.00 0.00 0.00 45 1019.4
20260507204017 63 89 0.0 2.6 0.00 0.00 0.00 45 1019.4
20260507203520 62 92 0.0 2.6 0.00 0.00 0.00 45 1019.4
20260507203032 62 78 0.9 2.6 0.00 0.00 0.00 46 1019.4
20260507202518 63 80 0.0 1.7 0.00 0.00 0.00 46 1019.4
20260507202016 63 80 0.0 1.7 0.00 0.00 0.00 47 1019.5
20260507201517 63 79 0.0 2.6 0.00 0.00 0.00 46 1019.5
20260507201016 63 79 0.9 2.6 0.00 0.00 0.00 46 1019.4
20260507200519 63 80 0.9 3.5 0.00 0.00 0.00 47 1019.4
20260507200016 63 81 0.0 3.5 0.00 0.00 0.00 47 1019.4
20260507195515 63 51 0.0 3.5 0.00 0.00 0.00 48 1019.4
20260507195016 63 27 0.9 3.5 0.00 0.00 0.00 48 1019.5
20260507194522 63 77 0.0 3.5 0.00 0.00 0.00 48 1019.5
20260507194019 63 82 0.9 3.5 0.00 0.00 0.00 49 1019.5
20260507193515 63 78 0.9 3.5 0.00 0.00 0.00 50 1019.5
20260507193018 63 103 0.0 2.6 0.00 0.00 0.00 50 1019.5
20260507192516 63 95 0.0 2.6 0.00 0.00 0.00 51 1019.5
20260507192015 63 94 0.0 2.6 0.00 0.00 0.00 52 1019.5
20260507191519 63 94 0.9 2.6 0.00 0.00 0.00 52 1019.4
20260507191017 63 90 0.0 1.7 0.00 0.00 0.00 53 1019.4
20260507190514 63 95 0.0 1.7 0.00 0.00 0.00 53 1019.4
20260507190016 63 94 0.9 1.7 0.00 0.00 0.00 53 1019.4
20260507185513 63 94 0.0 1.7 0.00 0.00 0.00 53 1019.4
20260507185013 63 93 0.0 3.5 0.00 0.00 0.00 52 1019.5
20260507184520 63 71 0.0 1.7 0.00 0.00 0.00 51 1019.4
20260507184014 63 72 0.0 1.7 0.00 0.00 0.00 51 1019.3
20260507183513 63 72 0.0 1.7 0.00 0.00 0.00 50 1019.3
20260507183014 63 72 0.0 1.7 0.00 0.00 0.00 49 1019.3
20260507182513 64 74 0.0 2.6 0.00 0.00 0.00 48 1019.3
20260507182013 64 74 0.9 2.6 0.00 0.00 0.00 47 1019.1
20260507181512 64 98 0.0 2.6 0.00 0.00 0.00 46 1019.2
20260507181018 64 97 0.0 2.6 0.00 0.00 0.00 44 1019.2
20260507180512 64 130 0.9 2.6 0.00 0.00 0.00 43 1019.2
20260507180017 64 142 0.9 2.6 0.00 0.00 0.00 43 1019.3
20260507175514 64 176 0.0 3.5 0.00 0.00 0.00 42 1019.2
20260507175014 64 47 0.9 3.5 0.00 0.00 0.00 43 1019.1
20260507174520 64 63 0.9 3.5 0.00 0.00 0.00 43 1019.1
20260507174015 64 57 0.9 3.5 0.00 0.00 0.00 43 1019.0
20260507173512 64 140 0.0 1.7 0.00 0.00 0.00 44 1019.1
20260507173025 65 168 0.0 0.9 0.00 0.00 0.00 42 1019.2
20260507172512 65 167 0.0 2.6 0.00 0.00 0.00 43 1019.1
20260507172010 66 167 0.9 3.5 0.00 0.00 0.00 44 1019.2
20260507171520 66 96 0.0 0.0 0.00 0.00 0.00 45 1019.1
20260507171011 66 94 0.0 0.0 0.00 0.00 0.00 45 1018.9
20260507170511 66 94 0.0 0.0 0.00 0.00 0.00 45 1018.8
20260507170010 66 360 0.0 0.0 0.00 0.00 0.00 45 1018.7
20260507165514 66 360 0.0 0.0 0.00 0.00 0.00 45 1018.7
20260507165010 66 360 0.0 0.0 0.00 0.00 0.00 45 1018.8
20260507164513 66 360 0.0 0.0 0.00 0.00 0.00 46 1018.7
20260507164010 66 360 0.0 0.0 0.00 0.00 0.00 45 1018.8
20260507163514 66 360 0.0 0.9 0.00 0.00 0.00 45 1018.8
20260507163010 67 86 0.0 1.7 0.00 0.00 0.00 43 1019.0
20260507162515 67 87 0.0 1.7 0.00 0.00 0.00 43 1019.0
20260507162010 67 86 0.0 0.9 0.00 0.00 0.00 43 1018.9
20260507161509 67 360 0.0 2.6 0.00 0.00 0.00 43 1018.9
20260507161009 67 86 0.9 2.6 0.00 0.00 0.00 42 1019.0
20260507160509 67 360 0.0 2.6 0.00 0.00 0.00 42 1019.0
20260507160011 68 80 0.0 3.5 0.00 0.00 0.00 41 1019.0
20260507155515 68 80 0.9 3.5 0.00 0.00 0.00 40 1019.0
20260507155011 68 41 0.9 4.3 0.00 0.00 0.00 40 1018.9
20260507154508 69 76 0.9 4.3 0.00 0.00 0.00 38 1018.9
20260507154011 69 20 1.7 3.5 0.00 0.00 0.00 37 1019.0
20260507153508 69 76 1.7 4.3 0.00 0.00 0.00 36 1019.2
20260507153008 70 96 0.9 3.5 0.00 0.00 0.00 35 1019.2
20260507152508 70 66 1.7 5.2 0.00 0.00 0.00 36 1019.2
20260507152013 70 84 0.9 5.2 0.00 0.00 0.00 35 1019.1
20260507151508 70 67 0.9 6.1 0.00 0.00 0.00 33 1019.1
20260507151008 70 59 1.7 6.1 0.00 0.00 0.00 33 1019.1
20260507150509 70 16 0.9 4.3 0.00 0.00 0.00 34 1019.1
20260507150007 70 69 1.7 4.3 0.00 0.00 0.00 34 1019.2
20260507145507 71 78 0.9 6.1 0.00 0.00 0.00 34 1019.1
20260507145012 71 138 1.7 7.0 0.00 0.00 0.00 34 1019.1
20260507144506 71 80 2.6 7.0 0.00 0.00 0.00 33 1019.1
20260507144006 71 74 1.7 5.2 0.00 0.00 0.00 34 1019.1
20260507143510 72 71 0.9 3.5 0.00 0.00 0.00 34 1019.2
20260507143006 72 50 0.9 7.8 0.00 0.00 0.00 33 1019.1
20260507142506 73 314 2.6 7.8 0.00 0.00 0.00 31 1019.1
20260507142007 73 86 1.7 4.3 0.00 0.00 0.00 34 1019.1
20260507141504 73 80 0.9 7.0 0.00 0.00 0.00 34 1018.9
20260507141004 73 29 1.7 7.0 0.00 0.00 0.00 35 1018.8
20260507140504 73 126 1.7 6.1 0.00 0.00 0.00 34 1018.8
20260507140004 73 136 0.9 7.0 0.00 0.00 0.00 34 1018.7
20260507135503 73 35 0.9 4.3 0.00 0.00 0.00 38 1018.6
20260507135004 74 171 0.9 5.2 0.00 0.00 0.00 40 1018.7
20260507134504 73 105 0.9 5.2 0.00 0.00 0.00 39 1018.7
20260507134003 73 92 1.7 5.2 0.00 0.00 0.00 44 1018.7
20260507133503 73 90 1.7 5.2 0.00 0.00 0.00 44 1018.5
20260507133002 73 87 0.9 4.3 0.00 0.00 0.00 47 1018.5
20260507132503 73 45 0.9 4.3 0.00 0.00 0.00 46 1018.6
20260507132002 73 69 0.9 4.3 0.00 0.00 0.00 44 1018.5
20260507131502 73 67 0.9 3.5 0.00 0.00 0.00 45 1018.5
20260507131002 72 360 0.9 4.3 0.00 0.00 0.00 45 1018.6
20260507130503 73 50 0.9 4.3 0.00 0.00 0.00 43 1018.6
20260507130002 73 54 0.9 3.5 0.00 0.00 0.00 41 1018.8
20260507125502 73 282 0.9 3.5 0.00 0.00 0.00 41 1018.9
20260507125002 73 83 0.9 9.6 0.00 0.00 0.00 39 1019.0
20260507124501 74 347 1.7 9.6 0.00 0.00 0.00 40 1019.0
20260507124002 74 103 1.7 6.1 0.00 0.00 0.00 39 1019.0
20260507123501 75 71 1.7 6.1 0.00 0.00 0.00 39 1019.1
20260507123002 75 161 1.7 6.1 0.00 0.00 0.00 38 1019.2
20260507122500 75 83 0.9 5.2 0.00 0.00 0.00 37 1019.2
20260507122101 76 110 1.7 5.2 0.00 0.00 0.00 36 1019.1
20260507121603 76 61 1.7 5.2 0.00 0.00 0.00 36 1019.1
20260507121100 75 42 1.7 7.0 0.00 0.00 0.00 35 1019.2
20260507120559 76 144 0.9 7.0 0.00 0.00 0.00 33 1019.2
20260507120105 76 63 2.6 7.0 0.00 0.00 0.00 33 1019.1
20260507115558 77 51 1.7 4.3 0.00 0.00 0.00 36 1019.1
20260507115057 77 88 1.7 8.7 0.00 0.00 0.00 37 1019.1
20260507114610 76 67 1.7 4.3 0.00 0.00 0.00 39 1019.2
20260507114057 76 65 1.7 5.2 0.00 0.00 0.00 39 1019.2
20260507113558 76 68 2.6 5.2 0.00 0.00 0.00 40 1019.2
20260507113057 76 137 1.7 6.1 0.00 0.00 0.00 39 1019.2
20260507112557 76 100 1.7 7.8 0.00 0.00 0.00 37 1019.3
20260507112059 76 30 2.6 7.0 0.00 0.00 0.00 39 1019.4
20260507111555 77 51 2.6 7.0 0.00 0.00 0.00 40 1019.3
20260507111053 76 52 1.7 7.0 0.00 0.00 0.00 38 1019.2
20260507110558 77 72 1.7 7.0 0.00 0.00 0.00 40 1019.1
20260507110054 77 80 1.7 4.3 0.00 0.00 0.00 41 1019.1
20260507105553 77 92 1.7 7.0 0.00 0.00 0.00 41 1019.1
20260507105052 77 102 2.6 5.2 0.00 0.00 0.00 43 1019.2
20260507104553 77 67 1.7 5.2 0.00 0.00 0.00 44 1019.0
20260507104051 77 126 1.7 3.5 0.00 0.00 0.00 46 1019.0
20260507103551 76 90 0.9 7.8 0.00 0.00 0.00 45 1018.9
20260507103055 76 131 1.7 7.8 0.00 0.00 0.00 43 1018.9
20260507102551 76 195 1.7 7.0 0.00 0.00 0.00 45 1019.0
20260507102050 75 62 1.7 7.8 0.00 0.00 0.00 45 1018.9
20260507101550 75 184 3.5 7.8 0.00 0.00 0.00 43 1019.1
20260507101052 76 188 1.7 7.8 0.00 0.00 0.00 42 1019.0
20260507100554 76 257 1.7 7.8 0.00 0.00 0.00 41 1019.1
20260507100052 76 259 2.6 7.0 0.00 0.00 0.00 42 1019.1
20260507095552 76 90 1.7 4.3 0.00 0.00 0.00 40 1019.0
20260507095049 77 173 0.9 4.3 0.00 0.00 0.00 42 1019.1
20260507094557 76 67 0.9 6.1 0.00 0.00 0.00 42 1019.0
20260507094046 76 47 1.7 6.1 0.00 0.00 0.00 43 1019.0
20260507093546 76 88 1.7 6.1 0.00 0.00 0.00 44 1019.0
20260507093046 76 114 1.7 5.2 0.00 0.00 0.00 45 1018.9
20260507092545 75 83 1.7 5.2 0.00 0.00 0.00 45 1019.0
20260507092045 75 78 1.7 4.3 0.00 0.00 0.00 49 1019.0
20260507091544 75 65 1.7 7.0 0.00 0.00 0.00 51 1019.0
20260507091043 74 96 1.7 7.0 0.00 0.00 0.00 52 1018.8
20260507090543 74 317 1.7 5.2 0.00 0.00 0.00 49 1018.8
20260507090044 74 97 0.9 3.5 0.00 0.00 0.00 58 1019.0
20260507085542 73 80 0.0 3.5 0.00 0.00 0.00 62 1018.9
20260507085042 72 119 1.7 3.5 0.00 0.00 0.00 60 1019.0
20260507084543 73 146 0.9 3.5 0.00 0.00 0.00 60 1019.1
20260507084041 74 121 0.9 3.5 0.00 0.00 0.00 58 1019.1
20260507083541 75 319 1.7 6.1 0.00 0.00 0.00 51 1019.1
20260507083040 74 121 0.9 7.0 0.00 0.00 0.00 42 1019.0
20260507082539 74 170 3.5 7.0 0.00 0.00 0.00 42 1019.0
20260507082042 75 54 0.9 4.3 0.00 0.00 0.00 43 1019.0
20260507081541 75 80 1.7 5.2 0.00 0.00 0.00 43 1018.9
20260507081037 74 24 1.7 5.2 0.00 0.00 0.00 43 1018.9
20260507080537 74 40 1.7 4.3 0.00 0.00 0.00 45 1019.0
20260507080038 73 119 0.0 3.5 0.00 0.00 0.00 47 1019.0
20260507075535 72 73 1.7 3.5 0.00 0.00 0.00 54 1019.0
20260507075035 71 159 0.9 6.1 0.00 0.00 0.00 56 1018.9
20260507074535 71 127 1.7 8.7 0.00 0.00 0.00 55 1018.9
20260507074034 74 128 3.5 8.7 0.00 0.00 0.00 49 1018.7
20260507073534 74 317 0.9 3.5 0.00 0.00 0.00 41 1018.5
20260507073033 74 21 0.0 3.5 0.00 0.00 0.00 44 1018.6
20260507072532 74 9 1.7 4.3 0.00 0.00 0.00 44 1018.6
20260507072030 73 103 1.7 4.3 0.00 0.00 0.00 42 1018.6
20260507071530 73 87 1.7 4.3 0.00 0.00 0.00 41 1018.6
20260507071029 73 35 1.7 3.5 0.00 0.00 0.00 42 1018.8
20260507070529 72 159 0.9 3.5 0.00 0.00 0.00 45 1018.8
20260507070040 73 100 0.0 3.5 0.00 0.00 0.00 45 1018.8
20260507065526 72 349 0.0 3.5 0.00 0.00 0.00 48 1018.8
20260507065026 71 55 0.0 3.5 0.00 0.00 0.00 53 1018.8
20260507064524 70 54 0.9 3.5 0.00 0.00 0.00 51 1018.9
20260507064026 70 64 0.0 2.6 0.00 0.00 0.00 50 1018.8
20260507063522 70 52 0.0 2.6 0.00 0.00 0.00 54 1018.8
20260507063020 70 53 0.9 2.6 0.00 0.00 0.00 58 1018.8
20260507062518 69 53 0.9 1.7 0.00 0.00 0.00 57 1018.7
20260507062016 68 52 0.0 1.7 0.00 0.00 0.00 60 1018.6
20260507061515 67 52 0.9 2.6 0.00 0.00 0.00 60 1018.5
20260507061020 67 51 0.0 2.6 0.00 0.00 0.00 60 1018.6
20260507060513 67 53 0.9 2.6 0.00 0.00 0.00 60 1018.5
20260507060016 67 55 0.9 2.6 0.00 0.00 0.00 59 1018.6
20260507055513 67 71 0.9 1.7 0.00 0.00 0.00 58 1018.6
20260507055011 67 75 0.9 1.7 0.00 0.00 0.00 59 1018.5
20260507054511 67 79 0.0 1.7 0.00 0.00 0.00 60 1018.5
20260507054009 66 79 0.0 1.7 0.00 0.00 0.00 57 1018.4
20260507053508 65 78 0.9 1.7 0.00 0.00 0.00 56 1018.4
20260507053007 65 79 0.0 1.7 0.00 0.00 0.00 58 1018.2
20260507052505 64 79 0.0 1.7 0.00 0.00 0.00 58 1018.3
20260507052007 64 79 0.0 1.7 0.00 0.00 0.00 63 1018.3
20260507051503 63 80 0.9 1.7 0.00 0.00 0.00 62 1018.3
20260507051000 63 80 0.0 1.7 0.00 0.00 0.00 57 1018.2
20260507050559 62 80 0.0 1.7 0.00 0.00 0.00 65 1018.3
20260507050058 61 80 0.0 1.7 0.00 0.00 0.00 65 1018.3
20260507045557 60 79 0.0 0.9 0.00 0.00 0.00 67 1018.3
20260507045056 60 78 0.0 0.9 0.00 0.00 0.00 67 1018.3
20260507044610 60 80 0.0 0.0 0.00 0.00 0.00 66 1018.2
20260507044056 60 80 0.0 0.0 0.00 0.00 0.00 67 1018.2
20260507043551 59 79 0.0 0.0 0.00 0.00 0.00 68 1018.1
20260507043051 58 80 0.0 0.0 0.00 0.00 0.00 70 1018.1
20260507042547 58 80 0.0 0.9 0.00 0.00 0.00 70 1018.1
20260507042046 57 81 0.0 0.9 0.00 0.00 0.00 70 1018.1
20260507041547 58 360 0.0 0.0 0.00 0.00 0.00 71 1018.1
20260507041045 57 80 0.0 0.0 0.00 0.00 0.00 71 1018.1
20260507040542 57 80 0.0 0.0 0.00 0.00 0.00 71 1018.1
20260507040045 56 80 0.0 0.0 0.00 0.00 0.00 71 1018.2
20260507035539 55 80 0.0 0.9 0.00 0.00 0.00 71 1018.1
20260507035038 55 79 0.0 0.9 0.00 0.00 0.00 72 1018.2
20260507034542 55 79 0.0 0.9 0.00 0.00 0.00 72 1018.1
20260507034037 54 360 0.0 1.7 0.00 0.00 0.00 72 1018.1
20260507033535 54 360 0.0 1.7 0.00 0.00 0.00 72 1018.1
20260507033045 54 360 0.0 0.9 0.00 0.00 0.00 72 1018.0
20260507032534 54 360 0.0 0.9 0.00 0.00 0.00 72 1017.9
20260507032040 54 360 0.0 1.7 0.00 0.00 0.00 72 1018.0
20260507031545 55 360 0.0 1.7 0.00 0.00 0.00 71 1017.9
20260507031033 55 360 0.0 1.7 0.00 0.00 0.00 71 1017.7
20260507030533 55 360 0.0 1.7 0.00 0.00 0.00 71 1017.7
20260507030033 55 360 0.0 1.7 0.00 0.00 0.00 71 1017.6
20260507025530 55 360 0.0 1.7 0.00 0.00 0.00 71 1017.6
20260507025030 55 360 0.0 1.7 0.00 0.00 0.00 71 1017.5
20260507024529 55 104 0.0 1.7 0.00 0.00 0.00 71 1017.6
20260507024028 55 360 0.0 2.6 0.00 0.00 0.00 70 1017.7
20260507023528 56 360 0.0 1.7 0.00 0.00 0.00 70 1017.7
20260507023028 56 106 0.0 1.7 0.00 0.00 0.00 70 1017.7
20260507022529 56 360 0.0 2.6 0.00 0.00 0.00 70 1017.6
20260507022028 56 360 0.0 1.7 0.00 0.00 0.00 69 1017.6
20260507021527 56 111 0.0 1.7 0.00 0.00 0.00 68 1017.6
20260507021028 56 111 0.0 0.9 0.00 0.00 0.00 68 1017.5
20260507020528 56 360 0.0 0.9 0.00 0.00 0.00 68 1017.5
20260507020028 57 360 0.0 0.0 0.00 0.00 0.00 65 1017.5
20260507015527 57 360 0.0 0.0 0.00 0.00 0.00 64 1017.5
20260507015026 58 360 0.0 1.7 0.00 0.00 0.00 64 1017.4
20260507014537 57 360 0.0 1.7 0.00 0.00 0.00 66 1017.4
20260507014026 57 360 0.0 0.0 0.00 0.00 0.00 67 1017.4
20260507013525 57 360 0.0 0.0 0.00 0.00 0.00 66 1017.3
20260507013034 57 360 0.0 0.0 0.00 0.00 0.00 66 1017.3
20260507012527 57 112 0.0 0.9 0.00 0.00 0.00 66 1017.2
20260507012026 56 360 0.0 1.7 0.00 0.00 0.00 67 1017.1
20260507011532 56 360 0.0 1.7 0.00 0.00 0.00 68 1017.1
20260507011028 56 360 0.0 1.7 0.00 0.00 0.00 68 1017.0
20260507010525 56 360 0.0 1.7 0.00 0.00 0.00 68 1017.0
20260507010031 57 360 0.0 1.7 0.00 0.00 0.00 67 1017.1
20260507005528 56 360 0.0 1.7 0.00 0.00 0.00 67 1017.1
20260507005030 56 360 0.0 0.9 0.00 0.00 0.00 66 1017.1
20260507004523 56 360 0.0 0.0 0.00 0.00 0.00 66 1017.1
20260507004023 56 360 0.0 0.9 0.00 0.00 0.00 65 1017.0
20260507003523 56 111 0.0 2.6 0.00 0.00 0.00 65 1017.1
20260507003022 56 360 0.9 2.6 0.00 0.00 0.00 65 1017.1
20260507002522 56 360 0.0 0.0 0.00 0.00 0.00 64 1017.1
20260507002022 56 360 0.0 0.0 0.00 0.00 0.00 64 1017.1
20260507001526 56 360 0.0 0.0 0.00 0.00 0.00 65 1017.2
20260507001020 56 360 0.0 1.7 0.00 0.00 0.00 66 1017.3
20260507000520 55 360 0.0 1.7 0.00 0.00 0.00 66 1017.3
20260507000019 56 360 0.0 0.9 0.00 0.00 0.00 66 1017.3
20260506235519 56 360 0.0 0.0 0.00 0.00 0.00 66 1017.4
20260506235016 56 360 0.0 0.0 0.00 0.00 0.00 66 1017.5
20260506234516 56 360 0.0 0.9 0.00 0.00 0.00 66 1017.6
20260506234015 56 360 0.0 0.9 0.00 0.00 0.00 66 1017.7
20260506233516 56 360 0.0 0.9 0.00 0.00 0.00 65 1017.7
20260506233014 56 360 0.0 0.0 0.00 0.00 0.00 65 1017.8
20260506232513 56 360 0.0 0.0 0.00 0.00 0.00 64 1017.7
20260506232012 57 360 0.0 0.0 0.00 0.00 0.00 63 1017.7
20260506231512 57 360 0.0 0.9 0.00 0.00 0.00 63 1017.8
20260506231012 57 360 0.0 0.9 0.00 0.00 0.00 63 1017.8
20260506230510 57 360 0.0 0.0 0.00 0.00 0.00 63 1017.7
20260506230010 58 360 0.0 0.9 0.00 0.00 0.00 61 1017.7
20260506225513 58 360 0.0 0.9 0.00 0.00 0.00 60 1017.7
20260506225016 58 360 0.0 0.9 0.00 0.00 0.00 60 1017.8
20260506224508 58 360 0.0 0.9 0.00 0.00 0.00 59 1017.8
20260506224006 58 360 0.0 0.9 0.00 0.00 0.00 59 1017.8
20260506223506 58 360 0.0 0.9 0.00 0.00 0.00 60 1017.8
20260506223009 58 360 0.0 0.0 0.00 0.00 0.00 60 1017.9
20260506222505 58 360 0.0 0.9 0.00 0.00 0.00 59 1018.0
20260506222004 58 360 0.0 0.9 0.00 0.00 0.00 59 1018.1
20260506221505 58 360 0.0 0.9 0.00 0.00 0.00 59 1018.1
20260506221005 58 360 0.0 0.9 0.00 0.00 0.00 59 1018.1
20260506220504 58 360 0.0 0.9 0.00 0.00 0.00 59 1018.0
20260506220005 58 360 0.0 0.9 0.00 0.00 0.00 59 1018.0
20260506215506 58 360 0.0 0.9 0.00 0.00 0.00 59 1018.0
20260506215003 58 360 0.0 0.0 0.00 0.00 0.00 59 1018.1
20260506214503 58 107 0.0 0.9 0.00 0.00 0.00 59 1018.1
20260506214002 58 360 0.0 0.9 0.00 0.00 0.00 58 1018.1